Theta_e
306 304 303 297 295 300 298 300 298 303 308 317 321 324 323 324 326 326 329 332 333 337 342 343 343 341 341 341 341 345 347 350
311 309 305 300 304 298 297 291 292 300 304 305 311 319 321 323 322 324 324 324 327 328 330 333 337 339 341 341 342 344 345 348
308 306 304 306 302 301 300 296 294 294 300 314 313 320 320 322 321 322 323 322 323 325 326 327 329 329 331 333 333 337 341 343
303 310 313 309 304 301 296 295 297 296 299 321 317 316 320 322 318 319 322 323 323 323 323 325 326 326 326 326 326 327 332 332
298 302 308 308 310 308 306 303 297 296 301 319 318 315 320 318 319 318 319 320 320 319 318 322 322 322 323 324 324 326 328 327
295 299 304 304 308 309 305 298 300 303 305 310 315 314 315 317 318 318 319 318 316 316 317 320 321 322 323 323 323 323 324 325
304 309 307 306 307 309 304 305 300 304 305 310 312 315 316 318 317 317 315 315 316 315 316 319 320 319 322 321 321 321 322 322
303 309 310 305 309 309 309 310 306 308 307 318 318 320 318 317 315 313 313 316 317 320 320 319 319 318 320 320 319 319 319 320
299 306 305 300 305 308 310 311 313 306 311 316 317 320 318 313 313 312 314 317 317 317 317 318 317 317 317 317 317 316 316 319
298 299 293 304 311 313 310 314 315 314 314 315 313 313 312 313 312 314 318 316 314 313 313 316 315 315 315 315 314 314 315 316
298 296 299 303 309 309 304 304 315 315 313 313 313 312 310 316 315 315 314 313 312 313 314 313 313 313 313 313 312 313 314 314
297 293 292 300 309 315 309 299 313 314 313 311 310 302 304 313 315 313 313 312 312 314 313 312 311 312 311 310 311 311 315 316
298 296 299 308 311 310 297 301 312 314 313 311 307 306 309 313 311 311 312 313 314 313 311 310 310 310 309 309 309 312 316 315
298 294 294 314 313 303 307 310 313 312 311 308 308 311 311 310 308 312 312 312 313 311 310 310 311 310 308 307 311 312 312 312
304 303 310 313 314 313 314 312 311 311 310 310 309 310 309 306 310 311 311 311 311 310 309 309 310 313 310 311 310 310 312 313
305 308 309 312 314 315 315 313 313 312 310 310 308 307 305 307 308 309 310 310 310 308 306 306 308 311 311 312 313 313 312 312
305 308 312 313 314 313 313 313 312 312 311 309 306 305 306 308 307 309 310 310 309 307 306 305 307 311 313 313 313 311 312 313
303 310 309 311 313 315 313 311 311 310 308 308 306 304 306 306 306 307 308 309 308 307 306 306 306 307 309 313 313 312 311 311
312 314 314 316 317 318 315 313 313 310 307 305 304 304 307 303 302 306 306 307 308 307 307 306 305 305 307 308 313 312 311 311
Wind_Speed
7 5 11 3 3 7 9 4 6 2 6 11 6 8 10 16 14 14 10 8 10 12 8 7 9 11 11 13 6 7 6 4
3 3 2 4 1 3 6 6 2 2 3 7 6 8 6 3 16 13 12 11 10 8 9 6 6 6 5 5 4 4 3 3
7 6 2 7 5 8 8 4 6 4 8 9 8 2 5 3 6 11 9 8 7 7 5 7 6 6 5 6 7 7 6 5
4 1 7 7 4 7 7 2 1 2 7 3 10 6 4 3 4 9 10 8 7 6 6 6 7 6 6 5 6 5 5 6
3 6 5 8 2 6 9 5 3 5 7 6 6 5 5 3 6 8 10 8 7 6 6 5 5 5 6 7 7 7 7 8
8 6 4 4 3 5 7 5 6 7 5 7 8 8 6 4 6 6 9 9 6 6 4 4 4 5 5 6 6 6 7 7
6 5 3 3 4 6 4 7 7 7 8 10 8 11 10 7 6 10 8 7 7 5 3 4 5 5 4 5 5 5 6 6
1 3 4 5 10 9 7 9 5 6 11 6 7 6 6 6 10 8 8 7 7 7 6 4 5 5 5 5 4 4 5 6
5 3 4 6 6 4 4 9 8 6 8 5 6 10 8 10 9 8 7 7 8 6 5 6 6 5 6 5 5 6 6 6
2 3 1 10 4 8 3 9 8 5 7 5 7 6 8 6 8 8 8 7 6 6 6 6 4 6 5 5 6 6 5 6
6 5 5 2 5 8 5 5 5 14 10 13 12 10 4 4 4 7 7 6 7 7 6 6 6 4 5 6 5 6 6 6
3 3 4 6 5 8 6 3 2 16 17 19 8 5 5 5 7 7 8 7 7 7 5 6 4 5 6 6 4 6 5 7
3 3 3 3 7 4 6 8 5 7 12 9 4 5 6 7 6 6 6 9 7 7 6 4 3 4 5 5 6 6 8 8
3 3 2 2 5 2 6 4 9 7 5 8 8 8 8 8 8 9 9 7 7 6 5 3 3 4 4 5 6 6 6 8
7 7 6 4 7 6 10 13 5 9 6 8 8 7 7 7 8 7 8 7 5 6 4 2 1 4 5 5 6 6 7 8
6 4 5 8 5 5 7 11 8 7 7 7 8 8 8 7 6 6 6 6 5 6 3 2 3 5 6 6 6 6 7 8
1 4 7 5 8 13 12 12 13 9 8 9 10 6 7 7 6 6 6 5 5 5 3 1 4 3 4 4 5 6 7 7
6 6 5 6 8 14 15 12 11 13 8 6 8 8 7 6 5 5 4 5 5 5 4 3 3 4 5 4 4 5 6 6
5 5 7 10 11 6 12 11 8 10 9 9 6 8 7 5 4 5 4 4 6 6 6 4 2 3 4 5 5 4 4 6
Wind_Direction
197 167 128 247 179 182 112 58 80 354 308 304 265 291 114 121 113 111 101 89 81 67 66 47 29 40 58 75 15 38 25 25
343 69 52 107 123 64 24 128 113 287 266 238 236 242 75 41 119 120 114 105 102 102 99 81 60 42 34 60 67 44 358 18
39 14 240 28 18 54 107 93 137 149 251 205 195 182 104 350 119 123 116 116 106 103 97 108 92 69 63 50 37 14 350 350
160 228 76 99 123 117 108 292 6 141 269 181 181 155 156 115 176 122 134 135 113 89 67 61 70 54 48 38 40 15 7 9
13 340 344 79 341 138 88 96 208 153 258 158 106 130 166 12 209 137 125 106 99 91 81 84 72 44 30 24 20 14 9 3
170 176 171 72 110 78 107 135 171 227 233 223 152 160 196 265 205 129 118 123 124 98 96 102 79 63 67 42 20 7 3 357
47 91 10 121 172 164 152 161 161 222 232 252 188 170 187 205 158 128 127 126 115 116 97 93 76 59 65 50 20 360 4 356
26 246 182 185 188 205 187 178 265 181 223 162 173 149 154 170 143 143 141 135 113 94 79 49 47 57 68 47 17 6 357 343
243 9 298 356 228 156 181 190 168 161 208 136 140 174 161 132 161 142 130 107 93 86 65 49 73 59 47 26 357 351 344 347
193 5 44 236 93 159 163 161 201 94 133 106 110 98 118 142 140 131 121 119 104 87 67 74 64 49 29 11 0 350 359 343
148 185 274 298 164 174 156 331 178 137 122 122 116 96 65 151 133 144 143 134 105 93 105 79 64 36 30 8 359 356 341 329
108 168 210 249 327 142 103 9 148 140 148 148 151 132 220 167 129 124 113 105 100 102 89 78 40 39 32 354 344 331 311 308
184 187 277 269 297 117 116 216 128 145 155 156 134 191 152 128 103 111 111 106 100 87 94 96 56 31 4 343 328 303 321 317
72 90 252 257 359 101 187 41 98 90 100 104 110 104 119 120 116 113 115 112 109 104 91 63 41 44 344 333 306 316 309 310
158 208 233 310 133 120 128 123 121 116 125 123 124 128 128 118 117 118 121 119 112 108 102 97 11 346 338 325 314 304 302 319
69 306 134 106 64 96 134 119 125 117 127 118 121 123 113 115 121 118 126 128 132 119 99 14 338 346 331 325 310 306 315 322
4 60 70 25 117 124 105 104 101 89 98 114 113 113 122 125 127 130 139 141 138 133 133 250 294 294 345 308 319 321 318 317
213 203 138 180 162 137 128 130 125 117 102 113 121 126 125 136 150 139 149 138 149 158 173 230 283 310 321 315 313 315 323 335
164 170 140 148 154 144 132 142 133 129 134 129 133 130 130 145 155 132 130 155 170 186 206 228 267 294 310 313 300 315 317 332